Location: Palomar Mountain Lodge
(33.3110°N, 116.8495°W)
Time: 13:49:28
(UTC-08:00)

Cosmos 2315 Rocket - Pass Details

Date: 13 December 2025
Orbit: 965 x 1002 km, 82.9° (Epoch: 21 January)

Event Time Altitude Azimuth Distance (km) Brightness Sun altitude
Rises 19:22:59 0° 196° (SSW) 3,690 7.3 -33.0°
Reaches altitude 10° 19:25:32 10° 200° (SSW) 2,749 6.6 -33.5°
Enters shadow 19:31:44 58° 278° (W) 1,153 4.5 -34.8°
